VE3MNX Weather Reports


time (UTC)temp
C
wind
direction
speed
KPH
gust
KPH
rain 1hr
cm
rain 24hr
cm
rain mn
cm
humidity
%
barometer
mb
20260507013815 7 163 11.3 14.5 0.00 0.36 0.10 80 1012.2
20260507012318 7 188 11.3 14.5 0.00 0.36 0.10 82 1011.9
20260507010817 8 170 4.8 12.9 0.00 0.36 0.10 81 1012.2
20260507005318 7 204 4.8 11.3 0.00 0.38 0.10 79 1012.2
20260507003816 7 173 3.2 11.3 0.00 0.41 0.10 79 1012.2
20260507002416 7 182 8.0 9.7 0.00 0.41 0.10 81 1012.5
20260507000915 8 192 4.8 9.7 0.00 0.41 0.10 80 1011.9
20260506235317 8 197 8.0 9.7 0.00 0.41 0.10 80 1011.9
20260506233817 8 212 3.2 9.7 0.00 0.46 0.10 82 1011.9
20260506232316 8 243 3.2 9.7 0.00 0.48 0.10 78 1011.9
20260506230815 8 189 3.2 8.0 0.00 0.51 0.10 78 1011.9
20260506225318 8 206 8.0 8.0 0.00 0.56 0.10 75 1011.9
20260506223816 8 157 4.8 8.0 0.00 0.66 0.10 81 1011.9
20260506222317 8 184 4.8 8.0 0.00 0.71 0.10 75 1012.0
20260506220816 8 155 3.2 9.7 0.00 0.74 0.10 75 1011.9
20260506215319 8 217 3.2 8.0 0.00 0.79 0.10 74 1011.8
20260506213816 9 196 8.0 9.7 0.00 0.81 0.10 75 1011.5
20260506212316 10 35 1.6 8.0 0.00 0.84 0.10 66 1011.2
20260506210815 10 327 1.6 3.2 0.00 0.84 0.10 64 1011.2
20260506205317 11 19 1.6 4.8 0.00 0.89 0.10 65 1010.8
20260506203815 11 337 4.8 9.7 0.00 0.89 0.10 62 1010.8
20260506202317 11 340 4.8 9.7 0.00 0.91 0.10 66 1010.8
20260506200816 10 19 3.2 8.0 0.00 0.99 0.10 64 1011.2
20260506195319 11 321 3.2 9.7 0.00 1.07 0.10 63 1011.2
20260506193820 11 355 3.2 9.7 0.00 1.14 0.10 61 1010.8
20260506192318 10 358 4.8 8.0 0.00 1.14 0.10 65 1010.8
20260506190817 11 323 4.8 11.3 0.00 1.14 0.10 62 1010.8
20260506185318 11 349 8.0 9.7 0.00 1.14 0.10 63 1010.8
20260506183819 10 313 3.2 12.9 0.00 1.14 0.10 66 1011.2
20260506182320 11 329 8.0 14.5 0.00 1.14 0.10 64 1010.8
20260506180817 10 332 8.0 20.9 0.00 1.14 0.10 62 1011.1
20260506175318 11 324 11.3 20.9 0.00 1.14 0.10 64 1011.0
20260506173817 11 336 8.0 12.9 0.00 1.14 0.10 67 1010.9
20260506172319 11 337 11.3 14.5 0.00 1.14 0.10 70 1010.8
20260506170817 10 345 16.1 22.5 0.00 1.14 0.10 67 1010.8
20260506165317 10 338 11.3 14.5 0.00 1.14 0.10 71 1010.8
20260506163817 10 144 3.2 8.0 0.00 1.14 0.10 67 1010.8
20260506162318 9 53 8.0 20.9 0.00 1.14 0.10 71 1011.2
20260506160818 9 317 9.7 19.3 0.00 1.14 0.10 71 1010.8
20260506155319 10 351 16.1 20.9 0.00 1.14 0.10 72 1010.8
20260506153819 9 340 12.9 16.1 0.00 1.14 0.10 75 1010.5
20260506152318 8 346 19.3 22.5 0.00 1.14 0.10 76 1010.5
20260506150818 9 337 12.9 20.9 0.00 1.14 0.10 76 1010.5
20260506145318 8 12 4.8 20.9 0.00 1.14 0.10 78 1010.2
20260506143817 7 347 16.1 29.0 0.00 1.14 0.10 78 1010.2
20260506142321 8 350 12.9 20.9 0.00 1.14 0.10 81 1010.2
20260506140818 7 335 16.1 27.4 0.00 1.14 0.10 79 1010.2
20260506135318 7 336 16.1 24.1 0.00 1.14 0.10 82 1009.8
20260506133817 6 331 16.1 25.7 0.00 1.14 0.10 83 1009.7
20260506132319 6 341 14.5 24.1 0.00 1.14 0.10 86 1009.5
20260506130817 6 330 16.1 20.9 0.00 1.14 0.10 86 1009.5
20260506125318 5 338 14.5 19.3 0.00 1.14 0.10 89 1009.5
20260506123818 5 321 16.1 20.9 0.00 1.14 0.10 88 1009.1
20260506122319 5 329 14.5 20.9 0.00 1.14 0.10 89 1009.1
20260506120818 5 348 14.5 16.1 0.00 1.14 0.10 90 1009.1
20260506115319 5 353 8.0 14.5 0.00 1.14 0.10 90 1008.5
20260506113818 6 335 12.9 19.3 0.00 1.14 0.10 90 1008.5
20260506112321 6 342 12.9 19.3 0.00 1.14 0.10 89 1008.1
20260506110817 7 324 4.8 9.7 0.00 1.14 0.10 92 1007.8
20260506105317 7 341 3.2 8.0 0.00 1.14 0.10 94 1007.5
20260506103818 7 310 3.2 3.2 0.00 1.14 0.10 93 1007.1
20260506102318 7 303 3.2 4.8 0.00 1.14 0.10 93 1006.8
20260506100818 7 286 1.6 3.2 0.00 1.14 0.10 91 1006.8
20260506095317 7 285 1.6 3.2 0.00 1.14 0.10 91 1007.1
20260506093817 7 284 3.2 8.0 0.00 1.14 0.10 91 1007.1
20260506092321 7 296 3.2 3.2 0.00 1.14 0.10 93 1007.0
20260506090817 7 291 3.2 4.8 0.00 1.14 0.10 90 1007.1
20260506085319 7 265 4.8 8.0 0.00 1.14 0.10 90 1007.5
20260506083817 7 295 4.8 4.8 0.00 1.14 0.10 90 1006.8
20260506082319 7 286 1.6 4.8 0.00 1.14 0.10 89 1006.8
20260506080820 7 281 3.2 4.8 0.03 1.14 0.10 89 1006.8
20260506072318 7 287 4.8 4.8 0.03 1.14 0.10 92 1007.1
20260506070818 7 289 3.2 4.8 0.00 1.12 0.08 93 1007.5
20260506062319 7 285 3.2 4.8 0.03 1.12 0.08 94 1007.1
20260506060817 7 302 3.2 8.0 0.03 1.12 0.08 94 1007.1
20260506050817 8 300 3.2 8.0 0.05 1.09 0.05 98 1007.5
20260506043816 8 294 3.2 4.8 0.00 1.07 0.03 99 1007.5
20260506042320 8 284 3.2 3.2 0.00 1.07 0.03 99 1007.5
20260506040816 8 288 3.2 4.8 0.00 1.04 0.00 99 1007.5
20260506035318 8 284 3.2 4.8 0.20 1.04 1.04 99 1007.5
20260506033817 8 282 1.6 3.2 0.18 0.99 0.99 99 1007.5
20260506032318 8 275 3.2 3.2 0.13 0.94 0.94 99 1007.5
20260506030817 8 255 8.0 9.7 0.10 0.89 0.89 99 1007.8
20260506025318 8 253 9.7 11.3 0.05 0.84 0.84 99 1007.8
20260506023817 8 256 9.7 11.3 0.03 0.81 0.81 99 1007.8
20260506022318 8 263 4.8 8.0 0.03 0.81 0.81 99 1007.5
20260506020818 8 238 4.8 9.7 0.00 0.79 0.79 99 1007.1
20260506015319 8 263 8.0 9.7 0.03 0.79 0.79 99 1007.1